Location: Newark
(15.4608°S, 41.1635°W)
Time: 22:14:48
(UTC+00:00)

A-11 Canister half - All Passes

Search period start: 30 July 2021 00:00
Search period end: 09 August 2021 00:00
Orbit: 1527 x 1682 km, 47.3° (Epoch: 30 July)

Date Brightness Start Highest point End Pass type
(mag) Time Alt. Az. Time Alt. Az. Time Alt. Az.
30 Jul - 01:54:45 10° WNW 02:03:02 36° SW 02:11:27 10° SSE night (unlit)
30 Jul - 08:22:56 10° SSW 08:30:24 24° SE 08:37:57 10° E visible
30 Jul - 10:26:17 10° SW 10:36:14 90° NW 10:46:22 10° NE daylight
30 Jul - 12:34:35 10° W 12:40:53 19° NW 12:47:16 10° NNW daylight
30 Jul - 23:27:26 10° NNW 23:36:23 51° NE 23:45:17 10° SE visible
31 Jul - 01:32:54 10° WNW 01:41:21 38° SW 01:49:52 10° SSE visible
31 Jul - 08:01:26 10° SSW 08:08:36 22° SE 08:15:54 10° E visible
31 Jul - 10:04:37 10° SW 10:14:32 86° SE 10:24:41 10° NE daylight
31 Jul - 12:12:29 10° W 12:19:13 20° NW 12:26:02 10° N daylight
31 Jul - 23:05:54 10° NNW 23:14:45 47° NE 23:23:32 10° ESE visible
01 Aug - 01:11:05 10° WNW 01:19:39 40° SW 01:28:18 10° SSE visible
01 Aug - 03:26:20 10° SSW 03:27:04 10° SSW 03:27:48 10° SSW night (unlit)
01 Aug - 07:39:56 10° SSW 07:46:50 21° SE 07:53:48 10° E visible
01 Aug - 09:42:58 10° SW 09:52:52 81° SE 10:02:58 10° NE daylight
01 Aug - 11:50:27 10° W 11:57:32 22° NW 12:04:44 10° N daylight
01 Aug - 22:44:22 10° NNW 22:53:07 44° NE 23:01:47 10° ESE visible
02 Aug - 00:49:16 10° WNW 00:57:58 43° SW 01:06:43 10° SSE visible
02 Aug - 03:03:13 10° SW 03:05:13 11° SSW 03:07:14 10° S night (unlit)
02 Aug - 07:18:27 10° S 07:25:03 20° SSE 07:31:43 10° ESE visible
02 Aug - 09:21:21 10° SW 09:31:11 77° SE 09:41:14 10° NE daylight
02 Aug - 11:28:28 10° WSW 11:35:52 24° NW 11:43:24 10° N daylight
02 Aug - 22:22:52 10° NNW 22:31:30 41° NE 22:40:01 10° ESE visible
03 Aug - 00:27:28 10° WNW 00:36:17 46° SW 00:45:08 10° SSE visible
03 Aug - 02:40:38 10° SW 02:43:22 11° SSW 02:46:08 10° S night (unlit)
03 Aug - 06:56:59 10° S 07:03:14 19° SSE 07:09:35 10° ESE visible
03 Aug - 08:59:42 10° SW 09:09:29 72° SE 09:19:31 10° NE daylight
03 Aug - 11:06:30 10° WSW 11:14:12 26° NW 11:22:02 10° N daylight
03 Aug - 22:01:23 10° NNW 22:09:52 38° NE 22:18:14 10° ESE visible
04 Aug - 00:05:40 10° WNW 00:14:36 49° SW 00:23:33 10° SSE visible
04 Aug - 02:18:13 10° SW 02:21:33 12° SSW 02:24:54 10° S night (unlit)
04 Aug - 06:35:32 10° S 06:41:27 17° SSE 06:47:26 10° ESE visible
04 Aug - 08:38:05 10° SW 08:47:48 68° SE 08:57:45 10° NE visible
04 Aug - 10:44:35 10° WSW 10:52:32 28° NW 11:00:38 10° N daylight
04 Aug - 21:39:54 10° N 21:48:14 35° NE 21:56:26 10° ESE visible
04 Aug - 23:43:53 10° WNW 23:52:55 52° SW 00:01:58 10° SSE visible
05 Aug - 01:55:52 10° SW 01:59:43 13° SSW 02:03:35 10° S night (unlit)
05 Aug - 06:14:06 10° S 06:19:39 16° SSE 06:25:15 10° ESE visible
05 Aug - 08:16:27 10° SW 08:26:07 64° SE 08:36:00 10° NE visible
05 Aug - 10:22:42 10° WSW 10:30:52 30° NW 10:39:13 10° N daylight
05 Aug - 21:18:27 10° N 21:26:36 33° NE 21:34:36 10° ESE visible
05 Aug - 23:22:07 10° WNW 23:31:15 55° SW 23:40:22 10° SSE visible
06 Aug - 01:33:36 10° SW 01:37:55 14° SSW 01:42:14 10° S visible
06 Aug - 05:52:41 10° S 05:57:50 15° SSE 06:03:01 10° ESE visible
06 Aug - 07:54:51 10° SSW 08:04:25 60° SE 08:14:13 10° NE visible
06 Aug - 10:00:49 10° WSW 10:09:12 32° NW 10:17:46 10° N daylight
06 Aug - 20:57:01 10° N 21:04:58 30° NE 21:12:46 10° ESE visible
06 Aug - 23:00:22 10° WNW 23:09:35 59° SW 23:18:45 10° SSE visible
07 Aug - 01:11:23 10° WSW 01:16:06 15° SSW 01:20:51 10° S visible
07 Aug - 05:31:18 10° S 05:36:01 14° SSE 05:40:46 10° ESE visible
07 Aug - 07:33:15 10° SSW 07:42:43 56° SE 07:52:26 10° ENE visible
07 Aug - 09:38:59 10° WSW 09:47:32 35° NW 09:56:19 10° N daylight
07 Aug - 20:35:36 10° N 20:43:19 28° NE 20:50:55 10° ESE daylight
07 Aug - 22:38:38 10° NW 22:47:55 63° SW 22:57:10 10° SE visible
08 Aug - 00:49:12 10° WSW 00:54:18 16° SSW 00:59:25 10° S visible
08 Aug - 05:09:57 10° S 05:14:11 13° SSE 05:18:27 10° SE visible
08 Aug - 07:11:39 10° SSW 07:21:01 53° SE 07:30:37 10° ENE visible
08 Aug - 09:17:09 10° WSW 09:25:52 37° NW 09:34:48 10° NNE daylight
08 Aug - 20:14:12 10° N 20:21:42 26° NE 20:29:01 10° ESE daylight
08 Aug - 22:16:53 10° NW 22:26:16 67° SW 22:35:33 10° SE visible
